Waarnemingen

Advertentie
Mijn weer
Hyeres, Frankrijk (7667): temperatuur & dauwpunt: 17.07.2017 08:00:00 - 23.07.2017 08:00:00 (CEST)Hyeres, Frankrijk (7667): temperatuur 5cm: 17.07.2017 08:00:00 - 23.07.2017 08:00:00 (CEST)Hyeres, Frankrijk (7667): windsnelheid & windstoten: 17.07.2017 08:00:00 - 23.07.2017 08:00:00 (CEST)Hyeres, Frankrijk (7667): windrichting: 17.07.2017 08:00:00 - 23.07.2017 08:00:00 (CEST)Hyeres, Frankrijk (7667): luchtdruk: 17.07.2017 08:00:00 - 23.07.2017 08:00:00 (CEST)Hyeres, Frankrijk (7667): zicht: 17.07.2017 08:00:00 - 23.07.2017 08:00:00 (CEST)Hyeres, Frankrijk (7667): neerslag: 17.07.2017 08:00:00 - 23.07.2017 08:00:00 (CEST)
Datum & Tijd tt [°C] td [°C] tt 5cm [°C] ff [km/u] ff [kn] fx [km/u] fx [kn] dd ppp [hPa] vv [km] rr [mm]
23.07.2017 08:00:00 24,4 19,5 22,4 5 3 9 5 N 1016,3 18 0,0
23.07.2017 07:00:00 22,2 19,7 21,2 6 4 13 7 N 1016,1 12 0,0
23.07.2017 06:00:00 23,3 20,4 21,8 7 4 22 12 Z 1016,0 16 0,0
23.07.2017 05:00:00 23,6 20,7 21,5 13 7 21 11 W 1015,9 15 0,0
23.07.2017 04:00:00 23,6 20,7 22,1 10 5 18 10 ZW 1016,2 15 0,0
23.07.2017 03:00:00 23,7 20,8 22,6 13 7 21 11 WZW 1016,6 12 0,0
23.07.2017 02:00:00 23,7 21,2 22,1 10 5 16 9 ZZW 1017,0 12 0,0
23.07.2017 01:00:00 23,9 21,2 22,6 7 4 16 9 WZW 1017,0 9 0,0
23.07.2017 00:00:00 24,2 21,5 23,0 11 6 19 10 W 1016,8 15 0,0
22.07.2017 23:00:00 24,4 21,3 23,2 11 6 22 12 ZW 1015,9 13 0,0
22.07.2017 22:00:00 24,7 21,8 23,8 16 9 22 12 ZW 1015,5 14 0,0
22.07.2017 21:00:00 25,0 21,7 24,5 16 9 23 12 ZW 1014,7 14 0,0
22.07.2017 20:00:00 25,8 21,9 26,3 16 9 24 13 ZW 1014,4 17 0,0
22.07.2017 19:00:00 26,7 21,9 30,2 14 8 24 13 ZW 1014,6 16 0,0
22.07.2017 18:00:00 27,4 21,7 32,3 16 8 28 15 ZW 1014,8 15 0,0
22.07.2017 17:00:00 27,4 21,4 29,6 18 10 29 15 ZW 1015,0 13 0,0
22.07.2017 16:00:00 28,0 21,3 32,6 13 7 27 15 ZZW 1015,0 19 0,0
22.07.2017 15:00:00 27,7 21,0 33,4 21 11 31 17 ZW 1015,2 19 0,0
22.07.2017 14:00:00 28,5 20,5 35,1 16 9 24 13 ZW 1015,0 19 0,0
22.07.2017 13:00:00 28,4 20,4 36,7 15 8 21 12 ZW 1014,9 20 0,0
22.07.2017 12:00:00 27,7 20,3 35,9 15 8 20 11 ZZW 1014,8 19 0,0
22.07.2017 11:00:00 27,4 20,2 33,5 13 7 19 11 ZZW 1014,6 20 0,0
22.07.2017 10:00:00 27,5 19,3 33,4 10 6 16 9 OZO 1014,0 20 0,0
22.07.2017 09:00:00 26,9 19,5 27,7 4 2 13 7 N 1013,7 20 0,0
22.07.2017 08:00:00 23,9 19,6 21,9 9 5 19 11 NW 1013,4 18 0,0
22.07.2017 07:00:00 22,0 19,2 19,2 8 5 16 9 NW 1013,3 15 0,0
22.07.2017 06:00:00 20,9 18,7 19,0 8 5 11 6 NW 1013,2 13 0,0
22.07.2017 05:00:00 21,2 18,4 18,5 7 4 14 7 NNW 1012,9 16 0,0
22.07.2017 04:00:00 20,6 18,2 17,5 8 4 9 5 NW 1012,9 15 0,0
22.07.2017 03:00:00 20,2 18,0 17,7 2 1 5 3 N 1013,0 14 0,0
22.07.2017 02:00:00 20,4 18,0 18,4 2 1 6 4 NNO 1012,6 13 0,0
22.07.2017 01:00:00 21,4 18,8 18,9 3 2 6 3 N 1012,8 14 0,0
22.07.2017 00:00:00 22,4 19,2 19,3 0 0 7 4 N 1012,3 16 0,0
21.07.2017 23:00:00 23,6 19,3 21,6 7 4 13 7 NNO 1012,0 22 0,0
21.07.2017 22:00:00 24,8 21,5 23,9 12 6 21 11 O 1011,7 19 0,0
21.07.2017 21:00:00 25,1 21,8 24,7 15 8 24 13 O 1011,0 19 0,0
21.07.2017 20:00:00 25,6 21,9 26,2 17 9 35 19 O 1010,3 19 0,0
21.07.2017 19:00:00 26,4 21,2 28,1 26 14 40 22 O 1010,2 20 0,0
21.07.2017 18:00:00 26,9 21,9 30,2 29 15 44 24 O 1010,1 19 0,0
21.07.2017 17:00:00 27,9 21,4 31,3 29 16 45 24 O 1010,7 19 0,0
21.07.2017 16:00:00 28,4 21,2 32,2 30 16 46 25 O 1011,1 20 0,0
21.07.2017 15:00:00 28,5 21,0 33,1 30 16 49 26 O 1011,3 19 0,0
21.07.2017 14:00:00 28,2 21,2 32,7 30 16 46 25 O 1011,4 20 0,0
21.07.2017 13:00:00 28,0 20,8 30,4 29 16 42 23 OZO 1011,6 20 0,0
21.07.2017 12:00:00 28,2 20,7 31,6 25 14 37 20 O 1011,8 20 0,0
21.07.2017 11:00:00 27,8 20,9 28,8 21 11 31 17 O 1011,8 20 0,0
21.07.2017 10:00:00 27,2 20,0 27,1 21 12 32 17 O 1011,9 20 0,0
21.07.2017 09:00:00 26,3 19,9 25,2 9 5 18 10 NO 1011,9 20 0,0
21.07.2017 08:00:00 23,4 17,6 20,6 6 4 24 13 NNW 1011,9 20 0,0
21.07.2017 07:00:00 19,9 15,5 17,7 10 5 28 15 NNW 1011,5 20 0,0
21.07.2017 06:00:00 18,6 14,5 16,1 10 5 12 7 NNW 1011,2 33 0,0
21.07.2017 05:00:00 18,3 14,2 16,2 6 4 8 4 N 1011,2 31 0,0
21.07.2017 04:00:00 18,8 14,7 16,6 5 3 9 5 N 1011,5 34 0,0
21.07.2017 03:00:00 19,5 14,7 16,7 6 3 16 9 N 1011,6 36 0,0
21.07.2017 02:00:00 19,7 13,8 16,8 4 2 6 3 N 1011,6 39 0,0
21.07.2017 01:00:00 19,7 13,4 17,4 2 1 8 5 N 1011,6 40 0,0
21.07.2017 00:00:00 21,0 14,6 18,8 3 2 6 4 NNO 1011,9 38 0,0
20.07.2017 23:00:00 22,2 15,8 19,8 3 2 10 6 ONO 1012,1 40 0,0
20.07.2017 22:00:00 24,1 15,8 21,2 5 3 8 4 N 1012,0 39 0,0
20.07.2017 21:00:00 26,0 15,4 24,4 7 4 16 9 ZZW 1011,7 49 0,0
20.07.2017 20:00:00 26,9 17,7 27,8 8 5 22 12 ZZW 1011,6 52 0,0
20.07.2017 19:00:00 26,4 18,8 28,4 18 10 25 13 ZW 1011,8 47 0,0
20.07.2017 18:00:00 27,7 19,8 33,0 15 8 22 12 ZW 1012,3 48 0,0
20.07.2017 17:00:00 27,9 20,2 30,1 16 8 23 12 ZW 1013,1 45 0,0
20.07.2017 16:00:00 29,0 19,0 32,1 8 4 18 10 ZW 1013,0 42 0,0
20.07.2017 15:00:00 26,8 18,9 30,4 16 9 23 13 OZO 1013,3 47 0,0
20.07.2017 14:00:00 27,6 19,1 32,9 17 9 25 13 OZO 1013,4 58 0,0
20.07.2017 13:00:00 27,7 17,8 34,8 18 10 26 14 OZO 1013,4 60 0,0
20.07.2017 12:00:00 27,8 18,2 34,3 16 9 22 12 ZO 1013,5 60 0,0
20.07.2017 11:00:00 27,3 15,0 25,0 7 4 16 9 OZO 1013,7 60 0,0
20.07.2017 10:00:00 24,8 13,4 24,7 11 6 29 15 NW 1013,6 50 0,0
20.07.2017 09:00:00 25,8 11,9 24,9 18 10 29 16 NNO 1013,5 59 0,0
20.07.2017 08:00:00 24,3 12,9 22,0 4 2 18 10 NNO 1014,2 58 0,0
20.07.2017 07:00:00 23,0 12,9 20,6 9 5 16 9 N 1014,6 60 0,0
20.07.2017 06:00:00 22,1 14,2 20,5 11 6 17 9 N 1014,6 59 0,0
20.07.2017 05:00:00 23,0 15,6 21,0 13 7 20 11 NW 1015,0 60 0,0
20.07.2017 04:00:00 21,9 16,4 20,7 10 5 22 12 NNW 1014,3 52 0,0
20.07.2017 03:00:00 21,4 16,8 19,7 9 5 14 8 NNO 1014,0 56 0,0
20.07.2017 02:00:00 20,8 17,2 19,7 7 4 10 5 N 1014,4 42 0,0
20.07.2017 01:00:00 22,0 17,6 19,9 8 4 11 6 N 1015,0 52 0,0
20.07.2017 00:00:00 21,3 18,3 19,5 9 5 12 7 N 1015,4 39 0,0
19.07.2017 23:00:00 21,5 18,7 19,4 6 4 10 5 NO 1015,5 31 0,0
19.07.2017 22:00:00 23,5 19,6 20,4 2 1 8 5 O 1015,8 44 0,0
19.07.2017 21:00:00 24,7 19,8 23,8 6 3 15 8 ZZO 1016,0 57 0,0
19.07.2017 20:00:00 25,5 19,6 26,6 11 6 21 11 OZO 1015,7 56 0,0
19.07.2017 19:00:00 26,4 18,3 30,1 14 8 25 14 ZO 1015,7 60 0,0
19.07.2017 18:00:00 27,1 17,0 28,5 16 8 24 13 ZO 1015,8 57 0,0
19.07.2017 17:00:00 27,1 16,1 29,5 15 8 26 14 ZO 1016,2 60 0,0
19.07.2017 16:00:00 27,9 17,1 29,2 17 9 25 14 ZO 1016,6 60 0,0
19.07.2017 15:00:00 26,5 18,9 29,8 20 11 26 14 OZO 1016,7 59 0,0
19.07.2017 14:00:00 26,4 20,5 29,8 14 7 22 12 ZO 1017,3 60 0,0
19.07.2017 13:00:00 27,1 20,2 28,6 13 7 21 12 ZO 1018,2 59 0,0
19.07.2017 12:00:00 26,0 20,1 28,1 13 7 21 11 OZO 1018,4 60 0,0
19.07.2017 11:00:00 25,7 20,0 28,3 16 9 23 12 OZO 1018,3 55 0,0
19.07.2017 10:00:00 25,7 19,8 28,7 14 8 22 12 OZO 1018,2 60 0,0
19.07.2017 09:00:00 25,2 19,1 26,5 9 5 18 10 O 1017,6 36 0,0
19.07.2017 08:00:00 22,4 14,5 19,3 4 2 16 9 N 1017,5 49 0,0
19.07.2017 07:00:00 18,8 13,2 16,2 7 4 9 5 N 1017,3 49 0,0
19.07.2017 06:00:00 17,8 12,7 16,2 8 4 10 5 N 1017,1 47 0,0
19.07.2017 05:00:00 17,7 12,8 16,2 7 4 10 5 N 1017,5 57 0,0
19.07.2017 04:00:00 18,0 12,9 15,7 7 4 10 5 N 1017,8 57 0,0
19.07.2017 03:00:00 17,9 13,0 16,0 5 3 9 5 N 1017,9 56 0,0
19.07.2017 02:00:00 18,4 13,5 15,8 4 2 5 3 NNW 1018,3 52 0,0
19.07.2017 01:00:00 18,6 13,0 16,8 4 2 5 3 NNO 1018,0 60 -
19.07.2017 00:00:00 19,8 13,3 - 2 1 8 4 NNO 1017,9 60 0,0
18.07.2017 23:00:00 - - - - - - - - - - -
18.07.2017 22:00:00 - - - - - - - - - - -
18.07.2017 21:00:00 24,8 14,9 23,4 5 3 14 8 ZW 1017,5 60 0,0
18.07.2017 20:00:00 - - - - - - - - - - -
18.07.2017 19:00:00 27,4 13,7 - 13 7 18 10 ZW 1017,7 60 0,0
18.07.2017 18:00:00 27,9 15,9 33,0 15 8 21 11 ZW 1017,9 60 0,0
18.07.2017 17:00:00 29,1 14,5 35,8 13 7 22 12 Z 1018,3 60 0,0
18.07.2017 16:00:00 - - - - - - - - - - -
18.07.2017 15:00:00 29,1 12,9 38,2 13 7 22 12 ZZO 1018,7 60 0,0
18.07.2017 14:00:00 - - - - - - - - - - -
18.07.2017 13:00:00 29,0 14,4 - 15 8 22 12 ZO 1019,2 60 0,0
18.07.2017 12:00:00 28,4 17,0 35,0 12 6 19 11 ZO 1019,3 60 0,0
18.07.2017 11:00:00 27,7 15,7 33,3 9 5 15 8 ZZO 1019,4 60 0,0
18.07.2017 10:00:00 26,6 17,7 31,1 7 4 14 8 O 1019,4 51 0,0
18.07.2017 09:00:00 26,0 18,7 27,3 8 5 13 7 OZO 1019,6 42 0,0
18.07.2017 08:00:00 23,2 12,5 18,9 5 3 10 5 N 1019,1 54 0,0
18.07.2017 07:00:00 18,6 10,7 16,8 8 4 12 6 NNO 1019,0 59 0,0
18.07.2017 06:00:00 19,7 10,4 16,8 6 4 15 8 NNW 1018,6 60 0,0
18.07.2017 05:00:00 20,8 10,0 17,4 9 5 13 7 NNW 1018,5 60 0,0
18.07.2017 04:00:00 20,9 10,1 18,8 11 6 16 9 NW 1018,8 60 0,0
18.07.2017 03:00:00 21,0 10,8 17,8 10 6 16 9 NW 1018,8 60 0,0
18.07.2017 02:00:00 20,3 11,5 - 8 4 11 6 NNW 1018,8 60 -
18.07.2017 01:00:00 19,5 12,5 16,6 6 4 10 6 NNW 1019,1 60 0,0
18.07.2017 00:00:00 19,6 12,4 17,0 3 2 4 2 NNO 1019,5 57 0,0
17.07.2017 23:00:00 20,9 14,1 18,5 3 1 12 6 NNO 1019,4 56 0,0
17.07.2017 22:00:00 23,8 16,6 - 8 4 15 8 ZZW 1019,3 60 0,0
17.07.2017 21:00:00 24,0 17,5 22,9 7 4 19 10 ZZW 1019,0 60 0,0
17.07.2017 20:00:00 25,3 16,2 26,7 13 7 23 12 ZW 1019,2 58 0,0
17.07.2017 19:00:00 26,1 17,2 29,7 16 9 23 12 ZW 1019,4 60 0,0
17.07.2017 18:00:00 28,0 13,5 32,5 16 9 22 12 ZZW 1019,4 60 0,0
17.07.2017 17:00:00 27,1 16,1 - 15 8 26 14 OZO 1019,8 60 -
17.07.2017 16:00:00 27,8 14,4 - 16 9 28 15 OZO 1020,2 55 0,0
17.07.2017 15:00:00 27,8 14,8 34,3 20 11 29 16 ZO 1020,5 19 0,0
17.07.2017 14:00:00 27,8 13,7 33,7 21 11 33 18 OZO 1020,9 52 0,0
17.07.2017 13:00:00 28,2 14,8 33,5 26 14 36 19 OZO 1021,2 54 0,0
17.07.2017 12:00:00 28,1 15,4 32,8 21 12 32 17 OZO 1021,2 53 0,0
17.07.2017 11:00:00 27,3 16,0 31,7 21 11 30 16 OZO 1021,5 60 0,0
17.07.2017 10:00:00 27,1 14,8 30,7 19 10 27 15 O 1021,8 60 0,0
17.07.2017 09:00:00 26,5 16,1 28,6 14 7 22 12 O 1021,8 60 0,0
17.07.2017 08:00:00 23,0 13,5 - 5 3 11 6 N 1021,4 50 -

tt = temperatuur
td = dauwpunt
tt 5cm = temperatuur 5cm
ff = windsnelheid
fx = windstoten
dd = windrichting
ppp = luchtdruk
vv = zicht
rr = neerslag

Weerstations in de omgeving